Year,Month,Day,Hour,Minute,Value (Times are PST for windgust in km/hr)
2015,08,28,00,05,3.20
2015,08,28,00,06,3.20
2015,08,28,00,07,3.20
2015,08,28,00,08,3.20
2015,08,28,00,09,3.20
2015,08,28,00,10,3.20
2015,08,28,00,11,3.20
2015,08,28,00,12,3.20
2015,08,28,00,13,1.60
2015,08,28,00,14,1.60
2015,08,28,00,15,3.20
2015,08,28,00,16,1.60
2015,08,28,00,17,3.20
2015,08,28,00,18,3.20
2015,08,28,00,19,3.20
2015,08,28,00,20,3.20
2015,08,28,00,21,3.20
2015,08,28,00,22,3.20
2015,08,28,00,23,1.60
2015,08,28,00,24,1.60
2015,08,28,00,25,1.60
2015,08,28,00,26,1.60
2015,08,28,00,27,3.20
2015,08,28,00,28,3.20
2015,08,28,00,29,3.20
2015,08,28,00,30,1.60
2015,08,28,00,31,1.60
2015,08,28,00,32,1.60
2015,08,28,00,40,1.60
2015,08,28,00,41,3.20
2015,08,28,00,42,3.20
2015,08,28,00,43,4.80
2015,08,28,00,44,3.20
2015,08,28,00,45,3.20
2015,08,28,00,46,3.20
2015,08,28,00,47,3.20
2015,08,28,00,48,3.20
2015,08,28,00,49,1.60
2015,08,28,00,50,1.60
2015,08,28,00,51,3.20
2015,08,28,00,52,3.20
2015,08,28,00,53,4.80
2015,08,28,00,54,4.80
2015,08,28,00,55,1.60
2015,08,28,00,56,1.60
2015,08,28,00,57,3.20
2015,08,28,00,58,1.60
2015,08,28,00,59,1.60
2015,08,28,01,00,3.20
2015,08,28,01,01,6.40
2015,08,28,01,02,3.20
2015,08,28,01,03,1.60
2015,08,28,01,04,1.60
2015,08,28,01,05,3.20
2015,08,28,01,06,1.60
2015,08,28,01,07,1.60
2015,08,28,01,08,3.20
2015,08,28,01,09,3.20
2015,08,28,01,10,4.80
2015,08,28,01,11,4.80
2015,08,28,01,12,8.10
2015,08,28,01,13,6.40
2015,08,28,01,14,4.80
2015,08,28,01,15,6.40
2015,08,28,01,16,8.10
2015,08,28,01,17,6.40
2015,08,28,01,18,4.80
2015,08,28,01,19,3.20
2015,08,28,01,20,3.20
2015,08,28,01,22,1.60
2015,08,28,01,23,3.20
2015,08,28,01,24,3.20
2015,08,28,01,25,3.20
2015,08,28,01,26,4.80
2015,08,28,01,27,3.20
2015,08,28,01,28,3.20
2015,08,28,01,29,3.20
2015,08,28,01,30,6.40
2015,08,28,01,31,3.20
2015,08,28,01,32,1.60
2015,08,28,01,33,1.60
2015,08,28,01,34,1.60
2015,08,28,01,35,1.60
2015,08,28,01,36,1.60
2015,08,28,01,37,1.60
2015,08,28,02,11,6.40
2015,08,28,02,12,3.20
2015,08,28,02,13,3.20
2015,08,28,02,14,3.20
2015,08,28,02,15,1.60
2015,08,28,02,16,3.20
2015,08,28,02,17,1.60
2015,08,28,02,18,1.60
2015,08,28,02,19,3.20
2015,08,28,02,20,3.20
2015,08,28,02,21,1.60
2015,08,28,02,22,3.20
2015,08,28,02,23,3.20
2015,08,28,02,24,4.80
2015,08,28,02,25,4.80
2015,08,28,02,26,3.20
2015,08,28,02,27,3.20
2015,08,28,02,28,1.60
2015,08,28,02,29,1.60
2015,08,28,02,30,1.60
2015,08,28,02,32,1.60
2015,08,28,02,33,1.60
2015,08,28,02,34,1.60
2015,08,28,02,35,1.60
2015,08,28,02,37,1.60
2015,08,28,02,38,1.60
2015,08,28,02,47,1.60
2015,08,28,02,49,1.60
2015,08,28,02,50,1.60
2015,08,28,02,53,3.20
2015,08,28,02,54,4.80
2015,08,28,02,55,4.80
2015,08,28,02,56,6.40
2015,08,28,02,57,4.80
2015,08,28,02,58,6.40
2015,08,28,02,59,6.40
2015,08,28,03,00,6.40
2015,08,28,03,01,4.80
2015,08,28,03,02,4.80
2015,08,28,03,03,4.80
2015,08,28,03,04,4.80
2015,08,28,03,05,4.80
2015,08,28,03,06,4.80
2015,08,28,03,07,6.40
2015,08,28,03,08,6.40
2015,08,28,03,09,3.20
2015,08,28,03,10,4.80
2015,08,28,03,11,11.30
2015,08,28,03,12,11.30
2015,08,28,03,13,11.30
2015,08,28,03,14,11.30
2015,08,28,03,15,11.30
2015,08,28,03,16,11.30
2015,08,28,03,17,8.10
2015,08,28,03,18,9.60
2015,08,28,03,19,9.60
2015,08,28,03,20,12.90
2015,08,28,03,21,12.90
2015,08,28,03,22,12.90
2015,08,28,03,23,8.10
2015,08,28,03,24,8.10
2015,08,28,03,25,8.10
2015,08,28,03,26,14.50
2015,08,28,03,27,16.10
2015,08,28,03,28,14.50
2015,08,28,03,29,11.30
2015,08,28,03,30,11.30
2015,08,28,03,31,11.30
2015,08,28,03,32,12.90
2015,08,28,03,33,11.30
2015,08,28,03,34,8.10
2015,08,28,03,35,8.10
2015,08,28,03,36,6.40
2015,08,28,03,37,6.40
2015,08,28,03,38,8.10
2015,08,28,03,39,6.40
2015,08,28,03,40,3.20
2015,08,28,03,41,3.20
2015,08,28,03,42,3.20
2015,08,28,03,43,3.20
2015,08,28,03,44,3.20
2015,08,28,03,45,3.20
2015,08,28,03,46,3.20
2015,08,28,03,47,4.80
2015,08,28,03,48,3.20
2015,08,28,03,49,1.60
2015,08,28,03,58,1.60
2015,08,28,03,59,1.60
2015,08,28,04,00,1.60
2015,08,28,04,01,1.60
2015,08,28,04,02,1.60
2015,08,28,04,03,3.20
2015,08,28,04,04,3.20
2015,08,28,04,05,3.20
2015,08,28,04,06,3.20
2015,08,28,04,07,1.60
2015,08,28,04,08,3.20
2015,08,28,04,09,6.40
2015,08,28,04,10,3.20
2015,08,28,04,11,1.60
2015,08,28,04,12,3.20
2015,08,28,04,13,3.20
2015,08,28,04,14,3.20
2015,08,28,04,15,3.20
2015,08,28,04,16,3.20
2015,08,28,04,17,3.20
2015,08,28,04,18,3.20
2015,08,28,04,19,4.80
2015,08,28,04,20,3.20
2015,08,28,04,21,1.60
2015,08,28,04,22,1.60
2015,08,28,04,23,3.20
2015,08,28,04,24,4.80
2015,08,28,04,25,3.20
2015,08,28,04,26,3.20
2015,08,28,04,27,4.80
2015,08,28,04,28,3.20
2015,08,28,04,29,3.20
2015,08,28,04,30,1.60
2015,08,28,04,31,3.20
2015,08,28,04,32,4.80
2015,08,28,04,33,4.80
2015,08,28,04,34,3.20
2015,08,28,04,35,3.20
2015,08,28,04,36,1.60
2015,08,28,04,37,3.20
2015,08,28,04,38,4.80
2015,08,28,04,39,4.80
2015,08,28,04,40,4.80
2015,08,28,04,41,4.80
2015,08,28,04,42,4.80
2015,08,28,04,43,3.20
2015,08,28,04,44,4.80
2015,08,28,04,45,3.20
2015,08,28,04,46,3.20
2015,08,28,04,47,4.80
2015,08,28,04,48,3.20
2015,08,28,04,49,3.20
2015,08,28,04,50,3.20
2015,08,28,04,51,4.80
2015,08,28,04,52,3.20
2015,08,28,04,53,3.20
2015,08,28,04,54,4.80
2015,08,28,04,55,3.20
2015,08,28,04,56,3.20
2015,08,28,04,57,4.80
2015,08,28,04,58,4.80
2015,08,28,04,59,4.80
2015,08,28,05,00,3.20
2015,08,28,05,01,1.60
2015,08,28,05,02,3.20
2015,08,28,05,03,1.60
2015,08,28,05,04,3.20
2015,08,28,05,05,1.60
2015,08,28,05,06,1.60
2015,08,28,05,09,1.60
2015,08,28,05,10,1.60
2015,08,28,05,12,1.60
2015,08,28,05,13,8.10
2015,08,28,05,14,6.40
2015,08,28,05,15,4.80
2015,08,28,05,16,6.40
2015,08,28,05,17,6.40
2015,08,28,05,18,6.40
2015,08,28,05,19,4.80
2015,08,28,05,20,3.20
2015,08,28,05,21,1.60
2015,08,28,05,22,1.60
2015,08,28,05,23,1.60
2015,08,28,05,24,1.60
2015,08,28,05,25,4.80
2015,08,28,05,26,4.80
2015,08,28,05,27,4.80
2015,08,28,05,28,6.40
2015,08,28,05,29,6.40
2015,08,28,05,30,4.80
2015,08,28,05,31,6.40
2015,08,28,05,32,4.80
2015,08,28,05,33,6.40
2015,08,28,05,34,6.40
2015,08,28,05,35,6.40
2015,08,28,05,36,9.60
2015,08,28,05,37,6.40
2015,08,28,05,38,9.60
2015,08,28,05,39,6.40
2015,08,28,05,40,6.40
2015,08,28,05,41,11.30
2015,08,28,05,42,9.60
2015,08,28,05,43,9.60
2015,08,28,05,44,8.10
2015,08,28,05,45,11.30
2015,08,28,05,46,11.30
2015,08,28,05,47,12.90
2015,08,28,05,48,9.60
2015,08,28,05,49,9.60
2015,08,28,05,50,6.40
2015,08,28,05,51,6.40
2015,08,28,05,52,6.40
2015,08,28,05,53,9.60
2015,08,28,05,54,8.10
2015,08,28,05,55,4.80
2015,08,28,05,56,4.80
2015,08,28,05,57,4.80
2015,08,28,05,58,4.80
2015,08,28,05,59,6.40
2015,08,28,06,00,9.60
2015,08,28,06,01,6.40
2015,08,28,06,02,4.80
2015,08,28,06,03,11.30
2015,08,28,06,04,12.90
2015,08,28,06,05,14.50
2015,08,28,06,06,6.40
2015,08,28,06,07,6.40
2015,08,28,06,08,6.40
2015,08,28,06,09,6.40
2015,08,28,06,10,9.60
2015,08,28,06,11,8.10
2015,08,28,06,12,8.10
2015,08,28,06,13,4.80
2015,08,28,06,14,4.80
2015,08,28,06,15,4.80
2015,08,28,06,16,11.30
2015,08,28,06,17,11.30
2015,08,28,06,18,11.30
2015,08,28,06,19,11.30
2015,08,28,06,20,8.10
2015,08,28,06,21,9.60
2015,08,28,06,22,8.10
2015,08,28,06,23,11.30
2015,08,28,06,24,11.30
2015,08,28,06,25,6.40
2015,08,28,06,26,6.40
2015,08,28,06,27,9.60
2015,08,28,06,28,8.10
2015,08,28,06,29,4.80
2015,08,28,06,30,9.60
2015,08,28,06,31,11.30
2015,08,28,06,32,6.40
2015,08,28,06,33,9.60
2015,08,28,06,34,9.60
2015,08,28,06,35,12.90
2015,08,28,06,36,14.50
2015,08,28,06,37,11.30
2015,08,28,06,38,8.10
2015,08,28,06,39,4.80
2015,08,28,06,40,8.10
2015,08,28,06,41,8.10
2015,08,28,06,42,8.10
2015,08,28,06,43,6.40
2015,08,28,06,44,8.10
2015,08,28,06,45,9.60
2015,08,28,06,46,9.60
2015,08,28,06,47,12.90
2015,08,28,06,48,8.10
2015,08,28,06,49,9.60
2015,08,28,06,50,8.10
2015,08,28,06,51,8.10
2015,08,28,06,52,6.40
2015,08,28,06,53,9.60
2015,08,28,06,54,16.10
2015,08,28,06,55,12.90
2015,08,28,06,56,9.60
2015,08,28,06,57,11.30
2015,08,28,06,58,8.10
2015,08,28,06,59,8.10
2015,08,28,07,00,8.10
2015,08,28,07,01,8.10
2015,08,28,07,02,8.10
2015,08,28,07,03,6.40
2015,08,28,07,04,4.80
2015,08,28,07,05,6.40
2015,08,28,07,06,6.40
2015,08,28,07,07,6.40
2015,08,28,07,08,9.60
2015,08,28,07,09,8.10
2015,08,28,07,10,6.40
2015,08,28,07,11,11.30
2015,08,28,07,12,8.10
2015,08,28,07,13,9.60
2015,08,28,07,14,12.90
2015,08,28,07,15,9.60
2015,08,28,07,16,8.10
2015,08,28,07,17,9.60
2015,08,28,07,18,8.10
2015,08,28,07,19,8.10
2015,08,28,07,20,9.60
2015,08,28,07,21,8.10
2015,08,28,07,22,4.80
2015,08,28,07,23,3.20
2015,08,28,07,24,1.60
2015,08,28,07,25,1.60
2015,08,28,07,26,1.60
2015,08,28,07,27,1.60
2015,08,28,07,28,1.60
2015,08,28,07,29,1.60
2015,08,28,07,30,1.60
2015,08,28,07,31,3.20
2015,08,28,07,32,1.60
2015,08,28,07,33,1.60
2015,08,28,07,34,3.20
2015,08,28,07,35,1.60
2015,08,28,07,36,1.60
2015,08,28,07,37,3.20
2015,08,28,07,38,3.20
2015,08,28,07,39,3.20
2015,08,28,07,40,3.20
2015,08,28,07,41,1.60
2015,08,28,07,42,1.60
2015,08,28,07,43,1.60
2015,08,28,07,44,3.20
2015,08,28,07,45,3.20
2015,08,28,07,46,1.60
2015,08,28,07,49,1.60
2015,08,28,07,50,3.20
2015,08,28,07,51,1.60
2015,08,28,07,52,1.60
2015,08,28,07,54,1.60
2015,08,28,07,55,1.60
2015,08,28,07,56,1.60
2015,08,28,07,57,1.60
2015,08,28,07,58,1.60
2015,08,28,07,59,3.20
2015,08,28,08,00,3.20
2015,08,28,08,01,3.20
2015,08,28,08,02,3.20
2015,08,28,08,03,1.60
2015,08,28,08,04,1.60
2015,08,28,08,05,1.60
2015,08,28,08,06,1.60
2015,08,28,08,08,1.60
2015,08,28,08,09,1.60
2015,08,28,08,12,1.60
2015,08,28,08,15,3.20
2015,08,28,08,16,4.80
2015,08,28,08,17,4.80
2015,08,28,08,18,4.80
2015,08,28,08,19,1.60
2015,08,28,08,20,1.60
2015,08,28,08,21,3.20
2015,08,28,08,22,3.20
2015,08,28,08,23,3.20
2015,08,28,08,24,3.20
2015,08,28,08,25,4.80
2015,08,28,08,26,3.20
2015,08,28,08,27,1.60
2015,08,28,08,28,1.60
2015,08,28,08,29,3.20
2015,08,28,08,30,1.60
2015,08,28,08,31,1.60
2015,08,28,08,32,1.60
2015,08,28,08,33,3.20
2015,08,28,08,34,1.60
2015,08,28,08,35,1.60
2015,08,28,08,37,1.60
2015,08,28,08,38,1.60
2015,08,28,08,39,1.60
2015,08,28,08,40,1.60
2015,08,28,08,41,3.20
2015,08,28,08,42,3.20
2015,08,28,08,43,1.60
2015,08,28,08,44,1.60
2015,08,28,08,45,3.20
2015,08,28,08,46,1.60
2015,08,28,08,47,3.20
2015,08,28,08,48,1.60
2015,08,28,08,49,3.20
2015,08,28,08,50,3.20
2015,08,28,08,51,4.80
2015,08,28,08,52,9.60
2015,08,28,08,53,9.60
2015,08,28,08,54,11.30
2015,08,28,08,55,6.40
2015,08,28,08,56,6.40
2015,08,28,08,57,12.90
2015,08,28,08,58,6.40
2015,08,28,08,59,4.80
2015,08,28,09,00,6.40
2015,08,28,09,01,4.80
2015,08,28,09,02,9.60
2015,08,28,09,03,4.80
2015,08,28,09,04,6.40
2015,08,28,09,05,11.30
2015,08,28,09,06,11.30
2015,08,28,09,07,11.30
2015,08,28,09,08,12.90
2015,08,28,09,09,8.10
2015,08,28,09,10,6.40
2015,08,28,09,11,4.80
2015,08,28,09,12,6.40
2015,08,28,09,13,6.40
2015,08,28,09,14,6.40
2015,08,28,09,15,11.30
2015,08,28,09,16,12.90
2015,08,28,09,17,17.70
2015,08,28,09,18,16.10
2015,08,28,09,19,12.90
2015,08,28,09,20,14.50
2015,08,28,09,21,11.30
2015,08,28,09,22,14.50
2015,08,28,09,23,16.10
2015,08,28,09,24,17.70
2015,08,28,09,25,17.70
2015,08,28,09,26,16.10
2015,08,28,09,27,14.50
2015,08,28,09,28,14.50
2015,08,28,09,29,17.70
2015,08,28,09,30,19.30
2015,08,28,09,31,17.70
2015,08,28,09,32,20.90
2015,08,28,09,33,19.30
2015,08,28,09,34,16.10
2015,08,28,09,35,17.70
2015,08,28,09,36,20.90
2015,08,28,09,37,19.30
2015,08,28,09,38,16.10
2015,08,28,09,39,19.30
2015,08,28,09,40,20.90
2015,08,28,09,41,25.70
2015,08,28,09,42,24.20
2015,08,28,09,43,22.50
2015,08,28,09,44,19.30
2015,08,28,09,45,17.70
2015,08,28,09,46,20.90
2015,08,28,09,47,22.50
2015,08,28,09,48,19.30
2015,08,28,09,49,19.30
2015,08,28,09,50,22.50
2015,08,28,09,51,20.90
2015,08,28,09,52,19.30
2015,08,28,09,53,22.50
2015,08,28,09,54,22.50
2015,08,28,09,55,20.90
2015,08,28,09,56,19.30
2015,08,28,09,57,24.20
2015,08,28,09,58,25.70
2015,08,28,09,59,24.20
2015,08,28,10,00,20.90
2015,08,28,10,01,22.50
2015,08,28,10,02,22.50
2015,08,28,10,03,22.50
2015,08,28,10,04,25.70
2015,08,28,10,05,24.20
2015,08,28,10,06,27.40
2015,08,28,10,07,22.50
2015,08,28,10,08,22.50
2015,08,28,10,09,20.90
2015,08,28,10,10,22.50
2015,08,28,10,11,19.30
2015,08,28,10,12,19.30
2015,08,28,10,13,27.40
2015,08,28,10,14,25.70
2015,08,28,10,15,17.70
2015,08,28,10,16,22.50
2015,08,28,10,17,20.90
2015,08,28,10,18,19.30
2015,08,28,10,19,29.00
2015,08,28,10,20,24.20
2015,08,28,10,21,27.40
2015,08,28,10,22,22.50
2015,08,28,10,23,25.70
2015,08,28,10,24,27.40
2015,08,28,10,25,19.30
2015,08,28,10,26,22.50
2015,08,28,10,27,25.70
2015,08,28,10,28,22.50
2015,08,28,10,29,24.20
2015,08,28,10,30,19.30
2015,08,28,10,31,19.30
2015,08,28,10,32,25.70
2015,08,28,10,33,24.20
2015,08,28,10,34,22.50
2015,08,28,10,35,22.50
2015,08,28,10,36,22.50
2015,08,28,10,37,24.20
2015,08,28,10,38,25.70
2015,08,28,10,39,25.70
2015,08,28,10,40,25.70
2015,08,28,10,41,25.70
2015,08,28,10,42,25.70
2015,08,28,10,43,29.00
2015,08,28,10,44,22.50
2015,08,28,10,45,24.20
2015,08,28,10,46,22.50
2015,08,28,10,47,27.40
2015,08,28,10,48,20.90
2015,08,28,10,49,22.50
2015,08,28,10,50,24.20
2015,08,28,10,51,16.10
2015,08,28,10,52,25.70
2015,08,28,10,53,22.50
2015,08,28,10,54,22.50
2015,08,28,10,55,27.40
2015,08,28,10,56,19.30
2015,08,28,10,57,19.30
2015,08,28,10,58,25.70
2015,08,28,10,59,25.70
2015,08,28,11,00,22.50
2015,08,28,11,01,22.50
2015,08,28,11,02,24.20
2015,08,28,11,03,25.70
2015,08,28,11,04,32.20
2015,08,28,11,05,29.00
2015,08,28,11,06,22.50
2015,08,28,11,07,24.20
2015,08,28,11,08,24.20
2015,08,28,11,09,24.20
2015,08,28,11,10,22.50
2015,08,28,11,11,29.00
2015,08,28,11,12,30.60
2015,08,28,11,13,25.70
2015,08,28,11,14,29.00
2015,08,28,11,15,29.00
2015,08,28,11,16,25.70
2015,08,28,11,17,22.50
2015,08,28,11,18,22.50
2015,08,28,11,19,17.70
2015,08,28,11,20,14.50
2015,08,28,11,21,22.50
2015,08,28,11,22,25.70
2015,08,28,11,23,25.70
2015,08,28,11,24,20.90
2015,08,28,11,25,24.20
2015,08,28,11,26,32.20
2015,08,28,11,27,25.70
2015,08,28,11,28,24.20
2015,08,28,11,29,32.20
2015,08,28,11,30,30.60
2015,08,28,11,31,24.20
2015,08,28,11,32,35.40
2015,08,28,11,33,30.60
2015,08,28,11,34,33.80
2015,08,28,11,35,32.20
2015,08,28,11,36,32.20
2015,08,28,11,37,32.20
2015,08,28,11,38,27.40
2015,08,28,11,39,29.00
2015,08,28,11,40,29.00
2015,08,28,11,41,27.40
2015,08,28,11,42,37.00
2015,08,28,11,43,32.20
2015,08,28,11,44,32.20
2015,08,28,11,45,30.60
2015,08,28,11,46,32.20
2015,08,28,11,47,32.20
2015,08,28,11,48,40.20
2015,08,28,11,49,32.20
2015,08,28,11,50,22.50
2015,08,28,11,51,29.00
2015,08,28,11,52,24.20
2015,08,28,11,53,29.00
2015,08,28,11,54,27.40
2015,08,28,11,55,35.40
2015,08,28,11,56,30.60
2015,08,28,11,57,32.20
2015,08,28,11,58,30.60
2015,08,28,11,59,30.60
2015,08,28,12,00,33.80
2015,08,28,12,01,30.60
2015,08,28,12,02,33.80
2015,08,28,12,03,33.80
2015,08,28,12,04,35.40
2015,08,28,12,05,30.60
2015,08,28,12,06,27.40
2015,08,28,12,07,22.50
2015,08,28,12,08,25.70
2015,08,28,12,09,30.60
2015,08,28,12,10,29.00
2015,08,28,12,11,25.70
2015,08,28,12,12,25.70
2015,08,28,12,13,27.40
2015,08,28,12,14,22.50
2015,08,28,12,15,19.30
2015,08,28,12,16,16.10
2015,08,28,12,17,24.20
2015,08,28,12,18,19.30
2015,08,28,12,19,27.40
2015,08,28,12,20,27.40
2015,08,28,12,21,24.20
2015,08,28,12,22,20.90
2015,08,28,12,23,24.20
2015,08,28,12,24,22.50
2015,08,28,12,25,16.10
2015,08,28,12,26,19.30
2015,08,28,12,27,24.20
2015,08,28,12,28,25.70
2015,08,28,12,29,24.20
2015,08,28,12,30,19.30
2015,08,28,12,31,24.20
2015,08,28,12,32,24.20
2015,08,28,12,33,22.50
2015,08,28,12,34,20.90
2015,08,28,12,35,25.70
2015,08,28,12,36,27.40
2015,08,28,12,37,29.00
2015,08,28,12,38,25.70
2015,08,28,12,39,27.40
2015,08,28,12,40,27.40
2015,08,28,12,41,27.40
2015,08,28,12,42,29.00
2015,08,28,12,43,27.40
2015,08,28,12,44,29.00
2015,08,28,12,45,33.80
2015,08,28,12,46,24.20
2015,08,28,12,47,25.70
2015,08,28,12,48,24.20
2015,08,28,12,49,27.40
2015,08,28,12,50,30.60
2015,08,28,12,51,33.80
2015,08,28,12,52,35.40
2015,08,28,12,53,32.20
2015,08,28,12,54,27.40
2015,08,28,12,55,29.00
2015,08,28,12,56,29.00
2015,08,28,12,57,32.20
2015,08,28,12,58,32.20
2015,08,28,12,59,25.70
2015,08,28,13,00,35.40
2015,08,28,13,01,40.20
2015,08,28,13,02,35.40
2015,08,28,13,03,33.80
2015,08,28,13,04,27.40
2015,08,28,13,05,27.40
2015,08,28,13,06,35.40
2015,08,28,13,07,40.20
2015,08,28,13,08,30.60
2015,08,28,13,09,27.40
2015,08,28,13,10,35.40
2015,08,28,13,11,35.40
2015,08,28,13,12,30.60
2015,08,28,13,13,25.70
2015,08,28,13,14,30.60
2015,08,28,13,15,35.40
2015,08,28,13,16,32.20
2015,08,28,13,17,25.70
2015,08,28,13,18,25.70
2015,08,28,13,19,32.20
2015,08,28,13,20,29.00
2015,08,28,13,21,27.40
2015,08,28,13,22,25.70
2015,08,28,13,23,32.20
2015,08,28,13,24,30.60
2015,08,28,13,25,27.40
2015,08,28,13,26,32.20
2015,08,28,13,27,27.40
2015,08,28,13,28,25.70
2015,08,28,13,29,27.40
2015,08,28,13,30,27.40
2015,08,28,13,31,25.70
2015,08,28,13,32,29.00
2015,08,28,13,33,29.00
2015,08,28,13,34,32.20
2015,08,28,13,35,29.00
2015,08,28,13,36,32.20
2015,08,28,13,37,29.00
2015,08,28,13,38,25.70
2015,08,28,13,39,25.70
2015,08,28,13,40,32.20
2015,08,28,13,41,33.80
2015,08,28,13,42,32.20
2015,08,28,13,43,22.50
2015,08,28,13,44,25.70
2015,08,28,13,45,27.40
2015,08,28,13,46,35.40
2015,08,28,13,47,32.20
2015,08,28,13,48,27.40
2015,08,28,13,49,27.40
2015,08,28,13,50,27.40
2015,08,28,13,51,25.70
2015,08,28,13,52,25.70
2015,08,28,13,53,25.70
2015,08,28,13,54,24.20
2015,08,28,13,55,32.20
2015,08,28,13,56,27.40
2015,08,28,13,57,37.00
2015,08,28,13,58,25.70
2015,08,28,13,59,27.40
2015,08,28,14,00,30.60
2015,08,28,14,01,20.90
2015,08,28,14,02,24.20
2015,08,28,14,03,24.20
2015,08,28,14,04,27.40
2015,08,28,14,05,20.90
2015,08,28,14,06,27.40
2015,08,28,14,07,22.50
2015,08,28,14,08,29.00
2015,08,28,14,09,29.00
2015,08,28,14,10,25.70
2015,08,28,14,11,25.70
2015,08,28,14,12,32.20
2015,08,28,14,13,24.20
2015,08,28,14,14,32.20
2015,08,28,14,15,27.40
2015,08,28,14,16,25.70
2015,08,28,14,17,22.50
2015,08,28,14,18,32.20
2015,08,28,14,19,30.60
2015,08,28,14,20,30.60
2015,08,28,14,21,24.20
2015,08,28,14,22,27.40
2015,08,28,14,23,30.60
2015,08,28,14,24,22.50
2015,08,28,14,25,30.60
2015,08,28,14,26,29.00
2015,08,28,14,27,29.00
2015,08,28,14,28,32.20
2015,08,28,14,29,27.40
2015,08,28,14,30,24.20
2015,08,28,14,31,19.30
2015,08,28,14,32,30.60
2015,08,28,14,33,32.20
2015,08,28,14,34,27.40
2015,08,28,14,35,20.90
2015,08,28,14,36,29.00
2015,08,28,14,37,24.20
2015,08,28,14,38,27.40
2015,08,28,14,39,19.30
2015,08,28,14,40,27.40
2015,08,28,14,41,24.20
2015,08,28,14,42,20.90
2015,08,28,14,43,25.70
2015,08,28,14,44,29.00
2015,08,28,14,45,27.40
2015,08,28,14,46,29.00
2015,08,28,14,47,32.20
2015,08,28,14,48,24.20
2015,08,28,14,49,35.40
2015,08,28,14,50,24.20
2015,08,28,14,51,27.40
2015,08,28,14,52,25.70
2015,08,28,14,53,33.80
2015,08,28,14,54,30.60
2015,08,28,14,55,29.00
2015,08,28,14,56,29.00
2015,08,28,14,57,33.80
2015,08,28,14,58,35.40
2015,08,28,14,59,30.60
2015,08,28,15,00,29.00
2015,08,28,15,01,32.20
2015,08,28,15,02,30.60
2015,08,28,15,03,32.20
2015,08,28,15,04,37.00
2015,08,28,15,05,35.40
2015,08,28,15,06,37.00
2015,08,28,15,07,35.40
2015,08,28,15,08,30.60
2015,08,28,15,09,30.60
2015,08,28,15,10,38.60
2015,08,28,15,11,30.60
2015,08,28,15,12,33.80
2015,08,28,15,13,37.00
2015,08,28,15,14,27.40
2015,08,28,15,15,22.50
2015,08,28,15,16,24.20
2015,08,28,15,17,30.60
2015,08,28,15,18,29.00
2015,08,28,15,19,30.60
2015,08,28,15,20,30.60
2015,08,28,15,21,29.00
2015,08,28,15,22,29.00
2015,08,28,15,23,29.00
2015,08,28,15,24,30.60
2015,08,28,15,25,27.40
2015,08,28,15,26,27.40
2015,08,28,15,27,32.20
2015,08,28,15,28,32.20
2015,08,28,15,29,30.60
2015,08,28,15,30,30.60
2015,08,28,15,31,29.00
2015,08,28,15,32,27.40
2015,08,28,15,33,22.50
2015,08,28,15,34,24.20
2015,08,28,15,35,24.20
2015,08,28,15,36,25.70
2015,08,28,15,37,25.70
2015,08,28,15,38,27.40
2015,08,28,15,39,25.70
2015,08,28,15,40,29.00
2015,08,28,15,41,24.20
2015,08,28,15,42,22.50
2015,08,28,15,43,24.20
2015,08,28,15,44,25.70
2015,08,28,15,45,27.40
2015,08,28,15,46,30.60
2015,08,28,15,47,30.60
2015,08,28,15,48,27.40
2015,08,28,15,49,30.60
2015,08,28,15,50,22.50
2015,08,28,15,51,32.20
2015,08,28,15,52,27.40
2015,08,28,15,53,32.20
2015,08,28,15,54,29.00
2015,08,28,15,55,25.70
2015,08,28,15,56,25.70
2015,08,28,15,57,22.50
2015,08,28,15,58,24.20
2015,08,28,15,59,32.20
2015,08,28,16,00,27.40
2015,08,28,16,01,30.60
2015,08,28,16,02,25.70
2015,08,28,16,03,27.40
2015,08,28,16,04,30.60
2015,08,28,16,05,25.70
2015,08,28,16,06,32.20
2015,08,28,16,07,24.20
2015,08,28,16,08,30.60
2015,08,28,16,09,25.70
2015,08,28,16,10,24.20
2015,08,28,16,11,20.90
2015,08,28,16,12,20.90
2015,08,28,16,13,19.30
2015,08,28,16,14,24.20
2015,08,28,16,15,22.50
2015,08,28,16,16,19.30
2015,08,28,16,17,16.10
2015,08,28,16,18,22.50
2015,08,28,16,19,22.50
2015,08,28,16,20,20.90
2015,08,28,16,21,24.20
2015,08,28,16,22,27.40
2015,08,28,16,23,27.40
2015,08,28,16,24,24.20
2015,08,28,16,25,20.90
2015,08,28,16,26,19.30
2015,08,28,16,27,20.90
2015,08,28,16,28,17.70
2015,08,28,16,29,20.90
2015,08,28,16,30,20.90
2015,08,28,16,31,19.30
2015,08,28,16,32,25.70
2015,08,28,16,33,25.70
2015,08,28,16,34,29.00
2015,08,28,16,35,25.70
2015,08,28,16,36,25.70
2015,08,28,16,37,22.50
2015,08,28,16,38,24.20
2015,08,28,16,39,16.10
2015,08,28,16,40,19.30
2015,08,28,16,41,24.20
2015,08,28,16,42,24.20
2015,08,28,16,43,14.50
2015,08,28,16,44,17.70
2015,08,28,16,45,16.10
2015,08,28,16,46,16.10
2015,08,28,16,47,17.70
2015,08,28,16,48,17.70
2015,08,28,16,49,17.70
2015,08,28,16,50,17.70
2015,08,28,16,51,25.70
2015,08,28,16,52,20.90
2015,08,28,16,53,20.90
2015,08,28,16,54,19.30
2015,08,28,16,55,20.90
2015,08,28,16,56,16.10
2015,08,28,16,57,17.70
2015,08,28,16,58,17.70
2015,08,28,16,59,25.70
2015,08,28,17,00,30.60
2015,08,28,17,01,24.20
2015,08,28,17,02,22.50
2015,08,28,17,03,30.60
2015,08,28,17,04,24.20
2015,08,28,17,05,25.70
2015,08,28,17,06,30.60
2015,08,28,17,07,27.40
2015,08,28,17,08,29.00
2015,08,28,17,09,27.40
2015,08,28,17,10,27.40
2015,08,28,17,11,29.00
2015,08,28,17,12,30.60
2015,08,28,17,13,29.00
2015,08,28,17,14,27.40
2015,08,28,17,15,30.60
2015,08,28,17,16,32.20
2015,08,28,17,17,30.60
2015,08,28,17,18,27.40
2015,08,28,17,19,27.40
2015,08,28,17,20,30.60
2015,08,28,17,21,25.70
2015,08,28,17,22,25.70
2015,08,28,17,23,30.60
2015,08,28,17,24,25.70
2015,08,28,17,25,25.70
2015,08,28,17,26,25.70
2015,08,28,17,27,35.40
2015,08,28,17,28,25.70
2015,08,28,17,29,30.60
2015,08,28,17,30,32.20
2015,08,28,17,31,37.00
2015,08,28,17,32,30.60
2015,08,28,17,33,25.70
2015,08,28,17,34,32.20
2015,08,28,17,35,25.70
2015,08,28,17,36,30.60
2015,08,28,17,37,29.00
2015,08,28,17,38,27.40
2015,08,28,17,39,27.40
2015,08,28,17,40,27.40
2015,08,28,17,41,29.00
2015,08,28,17,42,29.00
2015,08,28,17,43,27.40
2015,08,28,17,44,32.20
2015,08,28,17,45,32.20
2015,08,28,17,46,30.60
2015,08,28,17,47,27.40
2015,08,28,17,48,32.20
2015,08,28,17,49,32.20
2015,08,28,17,50,35.40
2015,08,28,17,51,27.40
2015,08,28,17,52,29.00
2015,08,28,17,53,30.60
2015,08,28,17,54,20.90
2015,08,28,17,55,22.50
2015,08,28,17,56,24.20
2015,08,28,17,57,29.00
2015,08,28,17,58,29.00
2015,08,28,17,59,33.80
2015,08,28,18,00,32.20
2015,08,28,18,01,32.20
2015,08,28,18,02,29.00
2015,08,28,18,03,24.20
2015,08,28,18,04,30.60
2015,08,28,18,05,25.70
2015,08,28,18,06,32.20
2015,08,28,18,07,37.00
2015,08,28,18,08,29.00
2015,08,28,18,09,29.00
2015,08,28,18,10,32.20
2015,08,28,18,11,33.80
2015,08,28,18,12,37.00
2015,08,28,18,13,30.60
2015,08,28,18,14,32.20
2015,08,28,18,15,29.00
2015,08,28,18,16,27.40
2015,08,28,18,17,32.20
2015,08,28,18,18,32.20
2015,08,28,18,19,30.60
2015,08,28,18,20,30.60
2015,08,28,18,21,27.40
2015,08,28,18,22,29.00
2015,08,28,18,23,27.40
2015,08,28,18,24,30.60
2015,08,28,18,25,25.70
2015,08,28,18,26,25.70
2015,08,28,18,27,22.50
2015,08,28,18,28,24.20
2015,08,28,18,29,27.40
2015,08,28,18,30,27.40
2015,08,28,18,31,29.00
2015,08,28,18,32,20.90
2015,08,28,18,33,20.90
2015,08,28,18,34,29.00
2015,08,28,18,35,22.50
2015,08,28,18,36,29.00
2015,08,28,18,37,25.70
2015,08,28,18,38,30.60
2015,08,28,18,39,25.70
2015,08,28,18,40,24.20
2015,08,28,18,41,27.40
2015,08,28,18,42,24.20
2015,08,28,18,43,17.70
2015,08,28,18,44,19.30
2015,08,28,18,45,17.70
2015,08,28,18,46,22.50
2015,08,28,18,47,22.50
2015,08,28,18,48,25.70
2015,08,28,18,49,27.40
2015,08,28,18,50,20.90
2015,08,28,18,51,20.90
2015,08,28,18,52,24.20
2015,08,28,18,53,25.70
2015,08,28,18,54,22.50
2015,08,28,18,55,19.30
2015,08,28,18,56,14.50
2015,08,28,18,57,17.70